Content
SEND FEEDBACK

Daily
Averages
Monthly
Summary
United States of America

COBB, KENTUCKY


Home > North America > United States > Kentucky
Elevation: 49 feet     Latitude: 36 59N     Longitude: 087 47W

WEATHER
 
SELECT A DAY
Number of Records: 232,658;   Date Range: 1/1/95 - 12/20/14
 
SHARE

PRINT THIS DATA

[ ← Previous Day ]
WEATHER ALMANAC - JANUARY 31, 2013
[ Next Day → ]
[ °C ]   °F
Weather ElementAverageHighLow
Temperature33.4 °F43.5 °F (2:55 pm)24.1 °F (11:55 pm)
Dewpoint26.3 °F33.8 °F (7:55 pm)17.6 °F (11:59 pm)
Humidity77.5 %100 % (8:13 pm)43 % (1:55 pm)
Barometer30.13 in30.30 in (11:59 pm)29.95 in (1:55 am)
Wind Speed16.7 mph23 mph (7:14 pm)
Wind Gust32.2 mph (7:31 pm)
Weather ElementAverage
Visibility7.6 mi
Wind DirectionWNW (284.4 °)

Weather ElementTotal
Precipitation0.04 in
Heating Degree Days31.2 (Base 65)
Averaged from 57 records on January 31, 2013
WEATHER CONDITIONS BREAKOUT
WIND DIRECTION BREAKOUT
WEATHER BY HOUR - JANUARY 31, 2013
[ °C ]   °F
Local TimeTemperatureDewpointHumidityBarometerVisibilityWind DirectionWind SpeedGust SpeedPrecipitationEventsConditions
1:55 AM32.7 °F20.7 °F61 %29.95 in10.0 miWest (280°)10.4 mphOvercast
2:55 AM32.9 °F21.7 °F64 %29.95 in10.0 miWest (260°)16.1 mphOvercast
3:55 AM32.2 °F19.8 °F60 %29.97 in10.0 miWest (270°)13.8 mphOvercast
4:55 AM31.1 °F18.9 °F61 %29.99 in10.0 miWSW (250°)21.9 mphOvercast
5:55 AM30.9 °F18.7 °F61 %30.01 in10.0 miWest (260°)12.7 mphOvercast
6:55 AM31.1 °F19.0 °F61 %30.04 in10.0 miWest (260°)15.0 mphOvercast
7:55 AM31.5 °F20.8 °F65 %30.06 in10.0 miWSW (240°)15.0 mphMostly Cloudy
8:55 AM32.7 °F20.5 °F61 %30.10 in10.0 miWSW (250°)21.9 mphMostly Cloudy
9:55 AM34.9 °F21.2 °F57 %30.10 in10.0 miWSW (250°)17.3 mphScattered Clouds
10:55 AM36.9 °F20.7 °F52 %30.11 in10.0 miWSW (250°)16.1 mph21.9 mphPartly Cloudy
11:55 AM39.7 °F21.9 °F49 %30.08 in10.0 miWSW (240°)16.1 mphPartly Cloudy
12:55 PM41.5 °F22.3 °F46 %30.06 in10.0 miWest (260°)20.7 mph25.3 mphClear
1:55 PM42.6 °F21.6 °F43 %30.05 in10.0 miWest (260°)15.0 mphClear
2:55 PM43.5 °F22.3 °F43 %30.03 in10.0 miWSW (250°)16.1 mph27.6 mphClear
3:55 PM42.3 °F23.0 °F47 %30.03 in10.0 miSW (230°)15.0 mphOvercast
4:55 PM42.1 °F23.9 °F49 %30.04 in10.0 miWSW (240°)10.4 mphScattered Clouds
5:55 PM41.4 °F24.8 °F52 %30.04 in10.0 miWSW (250°)11.5 mphOvercast
6:55 PM42.1 °F25.9 °F53 %30.05 in10.0 miWest (260°)15.0 mphOvercast
7:14 PM42.8 °F26.6 °F53 %30.06 in10.0 miWest (260°)23.0 mph28.8 mphMostly Cloudy
7:31 PM41.0 °F30.2 °F65 %30.07 in10.0 miWest (280°)23.0 mph32.2 mphLight Drizzle
7:36 PM39.2 °F30.2 °F70 %30.07 in10.0 miWest (280°)19.6 mph26.5 mphLight Drizzle
7:42 PM39.2 °F32.0 °F75 %30.08 in10.0 miWest (280°)20.7 mph26.5 mphLight Drizzle
7:55 PM37.8 °F33.8 °F86 %30.10 in10.0 miWNW (290°)21.9 mph29.9 mph0.00 inRainLight Rain
8:03 PM35.6 °F33.8 °F93 %30.11 in9.0 miWNW (290°)23.0 mph29.9 mphRainLight Rain
8:08 PM35.6 °F33.8 °F93 %30.12 in4.0 miWNW (300°)20.7 mph32.2 mphSnowLight Snow
8:10 PM35.6 °F33.8 °F93 %30.12 in3.0 miWNW (300°)18.4 mph32.2 mphSnowLight Snow
8:13 PM33.8 °F33.8 °F100 %30.12 in2.5 miWNW (300°)17.3 mph32.2 mphSnowLight Snow
8:16 PM33.8 °F33.8 °F100 %30.12 in3.0 miWNW (290°)19.6 mphSnowLight Snow
8:33 PM33.8 °F33.8 °F100 %30.13 in2.5 miWest (280°)18.4 mph25.3 mphSnowLight Snow
8:37 PM33.8 °F32.0 °F93 %30.14 in1.8 miWNW (290°)18.4 mph25.3 mphSnowLight Snow
8:39 PM33.8 °F32.0 °F93 %30.14 in1.2 miWNW (290°)20.7 mphSnowLight Snow
8:43 PM32.0 °F32.0 °F100 %30.14 in1.0 miWNW (290°)18.4 mph24.2 mphSnowLight Snow
8:45 PM32.0 °F32.0 °F100 %30.14 in1.0 miWNW (300°)17.3 mph24.2 mphSnowLight Snow
8:52 PM32.0 °F32.0 °F100 %30.15 in0.8 miWNW (300°)15.0 mph24.2 mphSnowLight Snow
8:53 PM32.0 °F32.0 °F100 %30.15 in0.8 miWNW (300°)15.0 mph19.6 mphSnowLight Snow
8:55 PM32.2 °F32.0 °F99 %30.15 in1.0 miNW (310°)13.8 mph19.6 mph0.03 inSnowLight Snow
8:59 PM32.0 °F32.0 °F100 %30.15 in1.2 miWNW (300°)15.0 mph23.0 mphSnowLight Snow
9:01 PM32.0 °F32.0 °F100 %30.15 in1.5 miWNW (300°)15.0 mph23.0 mphSnowLight Snow
9:03 PM32.0 °F32.0 °F100 %30.15 in2.0 miWNW (300°)18.4 mph23.0 mphSnowLight Snow
9:06 PM32.0 °F32.0 °F100 %30.16 in3.0 miWNW (300°)17.3 mph23.0 mphSnowLight Snow
9:15 PM32.0 °F32.0 °F100 %30.16 in5.0 miWNW (300°)15.0 mph25.3 mphSnowLight Snow
9:20 PM32.0 °F32.0 °F100 %30.16 in8.0 miWNW (300°)20.7 mph27.6 mphSnowLight Snow
9:24 PM32.0 °F30.2 °F93 %30.16 in10.0 miNW (310°)16.1 mph27.6 mphOvercast
9:32 PM32.0 °F26.6 °F80 %30.17 in10.0 miWNW (290°)18.4 mph28.8 mphOvercast
9:34 PM32.0 °F26.6 °F80 %30.17 in10.0 miWNW (300°)19.6 mph28.8 mphOvercast
9:36 PM32.0 °F26.6 °F80 %30.17 in10.0 miWNW (300°)21.9 mph28.8 mphOvercast
9:55 PM31.1 °F26.8 °F84 %30.18 in10.0 miNW (310°)16.1 mph20.7 mph0.01 inOvercast
9:59 PM30.2 °F26.6 °F86 %30.18 in10.0 miNW (320°)18.4 mph25.3 mphOvercast
10:40 PM26.6 °F21.2 °F80 %30.23 in10.0 miNW (320°)17.3 mph25.3 mphOvercast
10:55 PM26.1 °F20.5 °F79 %30.25 in10.0 miNW (310°)12.7 mph24.2 mphMostly Cloudy
11:15 PM24.8 °F21.2 °F86 %30.27 in10.0 miNW (310°)10.4 mphMostly Cloudy
11:27 PM24.8 °F19.4 °F80 %30.27 in10.0 miNW (310°)10.4 mph19.6 mphScattered Clouds
11:29 PM24.8 °F19.4 °F80 %30.27 in10.0 miNW (310°)11.5 mph19.6 mphMostly Cloudy
11:47 PM24.8 °F19.4 °F80 %30.29 in10.0 miNW (310°)10.4 mphScattered Clouds
11:51 PM24.8 °F19.4 °F80 %30.29 in10.0 miNW (310°)12.7 mphMostly Cloudy
11:55 PM24.1 °F18.7 °F80 %30.29 in10.0 miWNW (300°)16.1 mph23.0 mphMostly Cloudy
11:59 PM24.8 °F17.6 °F74 %30.30 in10.0 miNW (310°)16.1 mph23.0 mphMostly Cloudy
Hourly data recorded from KHOP, located miles away from Cobb, Kentucky







STORIES FROM OUR PARTNERS